Buffalo, NY

10:45 PM EDT on May 27, 2017 (GMT -0400)
Buffalo Niagara International

Weather History for KBUF - September, 2014

Change the Weather History Date:

Saturday, September 20, 2014

  Actual Average Record
Temperature  
Mean Temperature 69 °F 61 °F  
Max Temperature 77 °F 70 °F 88 °F (1946)
Min Temperature 61 °F 52 °F 36 °F (1993)
Degree Days  
Heating Degree Days 0 5  
Month to date heating degree days 83 63  
Since 1 July heating degree days 105 90  
Cooling Degree Days 4 1  
Month to date cooling degree days 56 45  
Year to date cooling degree days 502 532  
Growing Degree Days 16 (Base 50)    
Moisture  
Dew Point 56 °F    
Average Humidity 61    
Maximum Humidity 72    
Minimum Humidity 50    
Precipitation  
Precipitation 0.00 in 0.14 in 2.36 in (1875)
Month to date precipitation 3.02 2.47  
Year to date precipitation 32.96 27.63  
Snow  
Snow 0.00 in 0.00 in T in (1956)
Month to date snowfall 0.0 0.0  
Since 1 July snowfall 0.0 0.0  
Since 1 September snowfall 0.0 0.0  
Snow Depth 0.00 in    
Sea Level Pressure  
Sea Level Pressure 29.96 in    
Wind  
Wind Speed 17 mph (SSW)    
Max Wind Speed 28 mph    
Max Gust Speed 36 mph    
Visibility 10 miles    
Events      
T = Trace of Precipitation, MM = Missing Value Source: NWS Daily Summary

Daily Weather History Graph

Daily Weather History Graph

Search for Another Location

Airport or City:

Trip Planner

Search our weather history database for the weather conditions in past years. The results will help you decide how hot, cold, wet, or windy it might be!

Date:

Astronomy

Sep. 20, 2014 Rise Set
Actual Time 7:00 AM EDT 7:15 PM EDT
Civil Twilight 6:31 AM EDT 7:44 PM EDT
Nautical Twilight 5:58 AM EDT 8:17 PM EDT
Astronomical Twilight 5:24 AM EDT 8:51 PM EDT
Moon 3:33 AM EDT (9/20) 5:21 PM EDT (9/20)
Length of Visible Light 13h 12m
Length of Day
12h 15m
Waning Crescent, 11% of the Moon is Illuminated
Sep 20
Waning Crescent
Sep 24
New
Oct 1
First Quarter
Oct 8
Full
Oct 15
Last Quarter

Hourly Weather History & Observations

Time (EDT) Temp. Dew Point Humidity Pressure Visibility Wind Dir Wind Speed Gust Speed Precip Events Conditions
12:54 AM 61.0 °F 51.1 °F 70% 30.09 in 10.0 mi South 15.0 mph 23.0 mph N/A   Mostly Cloudy
1:54 AM 61.0 °F 52.0 °F 72% 30.08 in 10.0 mi South 13.8 mph - N/A   Scattered Clouds
2:54 AM 62.1 °F 53.1 °F 72% 30.07 in 10.0 mi SSW 15.0 mph - N/A   Mostly Cloudy
3:54 AM 63.0 °F 53.1 °F 70% 30.05 in 10.0 mi SSW 11.5 mph - N/A   Mostly Cloudy
4:54 AM 63.0 °F 53.1 °F 70% 30.05 in 10.0 mi SSW 13.8 mph - N/A   Scattered Clouds
5:54 AM 63.0 °F 53.1 °F 70% 30.04 in 10.0 mi SSW 16.1 mph 24.2 mph N/A   Scattered Clouds
6:54 AM 63.0 °F 54.0 °F 72% 30.05 in 10.0 mi SSW 12.7 mph - N/A   Mostly Cloudy
7:54 AM 64.0 °F 54.0 °F 70% 30.06 in 10.0 mi SSW 15.0 mph 25.3 mph N/A   Mostly Cloudy
8:54 AM 66.0 °F 55.0 °F 68% 30.04 in 10.0 mi SSW 20.7 mph 31.1 mph N/A   Mostly Cloudy
9:54 AM 69.1 °F 55.9 °F 63% 30.04 in 10.0 mi SSW 23.0 mph 28.8 mph N/A   Mostly Cloudy
10:54 AM 71.1 °F 57.0 °F 61% 30.02 in 10.0 mi SSW 16.1 mph 27.6 mph N/A   Overcast
11:54 AM 73.0 °F 57.0 °F 57% 30.00 in 10.0 mi SW 21.9 mph 34.5 mph N/A   Mostly Cloudy
12:54 PM 73.9 °F 55.9 °F 53% 29.96 in 10.0 mi SW 19.6 mph 34.5 mph N/A   Mostly Cloudy
1:54 PM 75.0 °F 57.9 °F 55% 29.93 in 10.0 mi SW 19.6 mph 31.1 mph N/A   Mostly Cloudy
2:54 PM 75.9 °F 57.9 °F 54% 29.91 in 10.0 mi SW 19.6 mph 32.2 mph N/A   Mostly Cloudy
3:54 PM 77.0 °F 57.0 °F 50% 29.89 in 10.0 mi SW 25.3 mph 32.2 mph N/A   Mostly Cloudy
4:54 PM 77.0 °F 57.0 °F 50% 29.87 in 10.0 mi SW 16.1 mph 24.2 mph N/A   Mostly Cloudy
5:54 PM 75.9 °F 57.0 °F 52% 29.87 in 10.0 mi SW 17.3 mph 21.9 mph N/A   Scattered Clouds
6:54 PM 73.9 °F 57.9 °F 57% 29.86 in 10.0 mi SSW 17.3 mph - N/A   Scattered Clouds
7:54 PM 72.0 °F 57.9 °F 61% 29.84 in 10.0 mi SSW 10.4 mph - N/A   Scattered Clouds
8:54 PM 71.1 °F 59.0 °F 66% 29.85 in 10.0 mi SSW 11.5 mph - N/A   Scattered Clouds
9:54 PM 71.1 °F 60.1 °F 68% 29.84 in 10.0 mi SSW 16.1 mph - N/A   Scattered Clouds
10:54 PM 72.0 °F 60.1 °F 66% 29.83 in 10.0 mi SSW 20.7 mph 27.6 mph N/A   Mostly Cloudy
11:54 PM 72.0 °F 59.0 °F 64% 29.80 in 10.0 mi SSW 21.9 mph 28.8 mph N/A   Mostly Cloudy